📊 Raw Sensor Data

Showing records 38601 to 38625 of 84,932 total

ID Distance (ft) Battery V Battery A Int Temp (°F) Int Humid (%) Ext Temp (°F) Solar V RSSI SNR Time Stamp
46344 15.2 3.94 -5 55 43 56 0.00 -65 9 07/15/2025 05:30 AM
46343 15.2 3.94 -5 55 43 56 0.00 -63 8 07/15/2025 05:15 AM
46342 15.2 4.01 -5 55 43 57 0.00 -65 8 07/15/2025 05:00 AM
46341 15.2 3.94 -5 56 43 57 0.00 -65 8 07/15/2025 04:45 AM
46340 15.2 3.94 -5 55 43 57 0.00 -64 8 07/15/2025 04:30 AM
46339 15.2 3.94 -5 56 43 57 0.00 -65 8 07/15/2025 04:15 AM
46338 15.2 4.01 -5 56 43 57 0.00 -66 8 07/15/2025 04:00 AM
46337 15.2 3.94 -5 55 43 57 0.00 -65 8 07/15/2025 03:45 AM
46336 15.2 3.94 -5 55 44 57 0.00 -66 8 07/15/2025 03:30 AM
46335 15.3 3.93 -5 55 44 57 0.00 -65 8 07/15/2025 03:15 AM
46334 15.2 3.95 -5 55 44 57 0.00 -65 7 07/15/2025 03:00 AM
46333 15.3 3.95 -5 55 44 57 0.10 -63 8 07/15/2025 02:45 AM
46332 15.3 3.95 -5 55 44 57 0.00 -63 8 07/15/2025 02:30 AM
46331 15.3 3.95 -5 55 44 57 0.00 -63 8 07/15/2025 02:15 AM
46330 15.2 3.93 -5 55 44 57 0.00 -64 8 07/15/2025 02:00 AM
46329 15.3 4.01 -5 55 44 56 0.10 -63 8 07/15/2025 01:45 AM
46328 15.3 3.92 -5 56 44 57 0.00 -63 8 07/15/2025 01:30 AM
46327 15.3 3.92 -5 56 45 57 0.00 -63 8 07/15/2025 01:15 AM
46326 15.3 3.89 -5 56 45 58 0.00 -63 8 07/15/2025 01:00 AM
46325 15.3 3.96 -5 57 45 58 0.00 -63 8 07/15/2025 12:45 AM
46324 15.3 3.95 -5 57 45 59 0.00 -66 8 07/15/2025 12:30 AM
46323 15.3 3.96 -5 58 46 59 0.00 -67 9 07/15/2025 12:15 AM
46322 15.3 3.93 -5 58 46 60 0.00 -67 8 07/15/2025 12:00 AM
46321 15.2 4.02 -5 59 46 60 0.10 -66 8 07/14/2025 11:45 PM
46320 15.2 4.02 -5 60 46 61 0.00 -66 8 07/14/2025 11:30 PM